| time (UTC) | temp C | wind direction | speed KPH | gust KPH | rain 1hr cm | rain 24hr cm | rain mn cm | humidity % | barometer mb |
| 20260831200112 | 13 | 7 | 0.0 | 3.2 | 0.00 | 1.27 | 0.46 | 83 | 1027.3 |
| 20260831190606 | 12 | 153 | 0.0 | 0.0 | 0.15 | 1.68 | 0.46 | 84 | 1028.1 |
| 20260831190112 | 11 | 153 | 0.0 | 1.6 | 0.18 | 1.68 | 0.46 | 83 | 1028.4 |
| 20260831180606 | 11 | 192 | 0.0 | 8.0 | 0.25 | 1.52 | 0.30 | 82 | 1028.7 |
| 20260831170606 | 11 | 193 | 1.6 | 9.7 | 0.05 | 1.27 | 0.05 | 81 | 1028.5 |
| 20260831170111 | 11 | 173 | 1.6 | 9.7 | 0.05 | 1.27 | 0.05 | 80 | 1028.5 |
| 20260831160606 | 12 | 155 | 4.8 | 22.5 | 0.00 | 1.22 | 0.00 | 76 | 1026.7 |
| 20260831160111 | 12 | 172 | 8.0 | 20.9 | 0.00 | 1.22 | 0.00 | 75 | 1026.6 |
| 20260831150606 | 13 | 170 | 4.8 | 29.0 | 0.00 | 1.22 | 0.00 | 67 | 1025.3 |
| 20260831150112 | 13 | 151 | 11.3 | 29.0 | 0.00 | 1.22 | 0.00 | 66 | 1024.9 |
| 20260831140605 | 13 | 135 | 1.6 | 9.7 | 0.00 | 1.22 | 0.00 | 70 | 1024.1 |
| 20260831140112 | 13 | 138 | 1.6 | 8.0 | 0.00 | 1.22 | 0.00 | 70 | 1024.2 |
| 20260831130606 | 12 | 214 | 0.0 | 8.0 | 0.00 | 1.22 | 0.00 | 73 | 1023.9 |
| 20260831120111 | 12 | 128 | 0.0 | 0.0 | 0.00 | 1.22 | 0.00 | 73 | 1023.4 |
| 20260831110605 | 12 | 176 | 0.0 | 8.0 | 0.00 | 1.22 | 0.00 | 70 | 1023.1 |
| 20260831110111 | 12 | 181 | 0.0 | 8.0 | 0.00 | 1.22 | 0.00 | 70 | 1023.1 |
| 20260831100111 | 13 | 142 | 1.6 | 11.3 | 0.00 | 1.22 | 0.00 | 70 | 1023.2 |
| 20260831090605 | 12 | 155 | 1.6 | 14.5 | 0.00 | 1.22 | 0.00 | 74 | 1023.0 |
| 20260831090111 | 12 | 192 | 3.2 | 14.5 | 0.00 | 1.22 | 0.00 | 74 | 1023.1 |
| 20260831080605 | 12 | 169 | 1.6 | 11.3 | 0.00 | 1.22 | 0.00 | 72 | 1023.5 |
| 20260831080111 | 13 | 154 | 1.6 | 11.3 | 0.00 | 1.22 | 0.00 | 71 | 1023.4 |
| 20260831070605 | 12 | 80 | 0.0 | 1.6 | 0.00 | 1.22 | 0.00 | 68 | 1023.8 |
| 20260831070110 | 12 | 58 | 0.0 | 0.0 | 0.00 | 1.22 | 0.00 | 69 | 1023.8 |
| 20260831060605 | 12 | 35 | 0.0 | 0.0 | 0.00 | 1.22 | 0.00 | 73 | 1022.5 |
| 20260831060110 | 12 | 35 | 0.0 | 0.0 | 0.00 | 1.22 | 0.00 | 72 | 1022.5 |
| 20260831050606 | 12 | 213 | 0.0 | 0.0 | 0.00 | 1.22 | 1.22 | 72 | 1022.5 |
| 20260831040606 | 13 | 192 | 0.0 | 0.0 | 0.00 | 1.22 | 1.22 | 67 | 1022.7 |
| 20260831040111 | 12 | 192 | 0.0 | 0.0 | 0.00 | 1.22 | 1.22 | 66 | 1022.7 |
| 20260831030606 | 15 | 192 | 0.0 | 0.0 | 0.00 | 1.22 | 1.22 | 55 | 1021.9 |
| 20260831030112 | 15 | 192 | 0.0 | 0.0 | 0.00 | 1.22 | 1.22 | 55 | 1021.7 |
| 20260831020607 | 17 | 188 | 0.0 | 9.7 | 0.00 | 1.22 | 1.22 | 46 | 1021.3 |
| 20260831020112 | 17 | 128 | 1.6 | 9.7 | 0.00 | 1.22 | 1.22 | 50 | 1021.1 |
| 20260831010606 | 19 | 274 | 1.6 | 4.8 | 0.00 | 1.22 | 1.22 | 38 | 1021.0 |
| 20260831010112 | 19 | 272 | 1.6 | 8.0 | 0.00 | 1.22 | 1.22 | 38 | 1020.9 |
| 20260831000606 | 20 | 278 | 4.8 | 22.5 | 0.00 | 1.22 | 1.22 | 39 | 1020.0 |
| 20260831000112 | 20 | 272 | 9.7 | 22.5 | 0.00 | 1.22 | 1.22 | 39 | 1020.0 |
| 20260830230606 | 20 | 219 | 0.0 | 4.8 | 0.00 | 1.22 | 1.22 | 50 | 1019.0 |
| 20260830230112 | 20 | 229 | 0.0 | 4.8 | 0.00 | 1.22 | 1.22 | 52 | 1019.0 |
| 20260830220112 | 17 | 262 | 0.0 | 1.6 | 0.05 | 1.22 | 1.22 | 72 | 1019.4 |